Regional Weather Roundup
Issued by NWS

Home | Current Version | Previous Version | Text Only | Print | Product List | Glossary Off
Versions: 1 2 3 4 5 6 7 8 9 10 11 12 13 14 15 16 17 18 19 20 21 22 23 24 25 26

000
ASUS45 KPSR 062110
RWRAZ

ARIZONA HOURLY REGIONAL WEATHER ROUNDUP
NATIONAL WEATHER SERVICE PHOENIX AZ
200 PM MST TUE DEC 06 2016

NOTE: FAIR INDICATES FEW OR NO CLOUDS BELOW 12,000 FEET WITH NO
SIGNIFICANT WEATHER AND/OR OBSTRUCTIONS TO VISIBILITY.

AZZ001>003-036-062200-
NORTHWEST ARIZONA

CITY           SKY/WX    TMP DP  RH WIND       PRES   REMARKS
BULLHEAD CITY  MOSUNNY   68  32  26 S9G17     29.81F
KINGMAN        SUNNY     58  13  17 SW17G28   29.84F
$$

AZZ004>008-015-016-018-062200-
NORTH CENTRAL ARIZONA

CITY           SKY/WX    TMP DP  RH WIND       PRES   REMARKS
GRAND CANYON   MOSUNNY   45  20  36 W18G26    29.82F
PRESCOTT       MOSUNNY   52  25  35 SW18      29.87F
FLAGSTAFF      SUNNY     42  21  43 SW18G28   29.84F
PAYSON         MOSUNNY   52  28  40 S9G16     29.92F
PAGE           SUNNY     52  16  24 N6        29.72F
$$

AZZ009>014-017-062200-
NORTHEAST ARIZONA

CITY           SKY/WX    TMP DP  RH WIND       PRES   REMARKS
WINSLOW        SUNNY     58  17  20 SW24G33   29.82F
SAINT JOHNS    SUNNY     53  21  28 W29G37    29.83F
WINDOW ROCK    CLOUDY    48  14  25 SW24G33   29.81F
SHOW LOW       SUNNY     45  23  42 SW26G33   29.88F
$$

AZZ023-062200-
GREATER PHOENIX AREA

CITY           SKY/WX    TMP DP  RH WIND       PRES   REMARKS
PHOENIX        PTSUNNY   64  38  38 CALM      29.86F
BUCKEYE        MOSUNNY   63  45  51 S3        29.89F
GLENDALE       PTSUNNY   63  41  45 CALM      29.89F
DEER VALLEY    PTSUNNY   61  43  51 SW7       29.87F
SCOTTSDALE     MOSUNNY   63  36  36 SW5       29.89F
MESA-FALCON    PTSUNNY  N/A N/A N/A W12G17    29.85F
MESA-GATEWAY   PTSUNNY   64  36  34 NW3       29.88F
CHANDLER       SUNNY     66  36  32 S6        29.88F
$$

AZZ027-028-062200-
SOUTHWEST MARICOPA COUNTY AND PINAL COUNTY

CITY           SKY/WX    TMP DP  RH WIND       PRES   REMARKS
CASA GRANDE    NOT AVBL
$$

AZZ503-504-507>509-062200-
SOUTHEAST ARIZONA

CITY           SKY/WX    TMP DP  RH WIND       PRES   REMARKS
TUCSON         MOSUNNY   68  29  23 W8G22     29.90F
RYAN FIELD     SUNNY     70  32  24 S14       29.90F
NOGALES        SUNNY     64  29  26 SW14G22   29.94F
DOUGLAS        MOSUNNY   64  30  27 SW16      29.93F
SAFFORD        SUNNY     62  27  26 SE3       29.88F
$$

AZZ020-021-025-026-031-062200-
SOUTHWEST ARIZONA

CITY           SKY/WX    TMP DP  RH WIND       PRES   REMARKS
YUMA           PTSUNNY   69  52  54 VRB5      29.85F
$$

CAZ031-033-041-043-047-048-061-062200-
SOUTHERN CALIFORNIA

CITY           SKY/WX    TMP DP  RH WIND       PRES   REMARKS
DOWNTOWN L.A.  MOSUNNY   63  47  55 CALM      29.95F
L.A. AIRPORT   PTSUNNY   61  51  70 W7        29.96F
SAN DIEGO      PTSUNNY   61  48  62 S8        30.00F
BURBANK        MOSUNNY   61  43  51 VRB3      29.95F
ONTARIO        PTSUNNY   60  45  57 SW7       29.96F
RIVERSIDE      PTSUNNY   61  45  55 CALM      29.96F
PALM SPRINGS   SUNNY     68  36  30 E6        29.85F
EL CENTRO NAS  PTSUNNY   70  45  40 SE7       29.85F
IMPERIAL       SUNNY     70  50  49 VRB7      29.83F
BLYTHE         PTSUNNY   70  38  31 S17       29.83F
NEEDLES        MOSUNNY   68  29  23 E7        29.81F
$$

NVZ020-UTZ003-062200-
SOUTHERN NEVADA-UTAH

CITY           SKY/WX    TMP DP  RH WIND       PRES   REMARKS
LAS VEGAS      MOSUNNY   60  19  20 NE7       29.77F
SALT LAKE CITY CLOUDY    29  14  53 N12       29.78R WCI  19
$$

NMZ009-TXZ055-062200-
NEW MEXICO-WEST TEXAS

CITY           SKY/WX    TMP DP  RH WIND       PRES   REMARKS
ALBUQUERQUE    PTSUNNY   52  15  23 SW14G24   29.80F
EL PASO        PTSUNNY   62  30  29 SW12      29.91F
$$


........................KEY........................
SKY/WX - SKY CONDITION/WEATHER
TMP    - TEMPERATURE IN FAHRENHEIT
DP     - DEW POINT IN FAHRENHEIT
RH     - RELATIVE HUMIDITY IN PERCENT
WIND   - DIRECTION AND SPEED IN MILES PER HOUR (MPH)
VRB    - VARIABLE WIND DIRECTION
PRES   - MEAN SEA LEVEL PRESSURE IN INCHES OF MERCURY
         F - FALLING PRESSURE   R - RISING PRESSURE
         S - STEADY PRESSURE
VSB    - VISIBILITY IN MILES
HX     - HEAT INDEX IN FAHRENHEIT
WCI    - WIND CHILL INDEX IN FAHRENHEIT
TC     - TEMPERATURE IN CELSIUS WHICH IS ALSO KNOWN AS
         TEMPERATURE IN CENTIGRADE
AFB    - AIR FORCE BASE
         LUKE AFB IS LUKE AIR FORCE BASE
         DAVIS-MONTHAN IS DAVIS-MONTHAN AIR FORCE BASE
NAS    - NAVAL AIR STATION
         EL CENTRO NAS IS EL CENTRO NAVAL AIR STATION
N/A    - NOT AVAILABLE





USA.gov is the U.S. government's official web portal to all federal, state and local government web resources and services.